カタログに戻る

COSMOS 2499 DEB

LostPO
NORAD 56568·DEBRIS·🇷🇺 Russia

打ち上げ May 23, 2014 から Plesetsk Cosmodrome

Loading…

次のパス (今後24時間)

TLE

古いSource: Space-Track

元期: Sep 27, 2024, 08:07 UTC

1 56568U 14028BB  24271.33858758  .00008730  00000-0  17255-1 0  9997
2 56568  82.3441 287.5599 0324774 298.5447  58.3338 13.17147015 81183

AllMySatでCOSMOS 2499 DEBをリアルタイム追跡

Download on the App Store